星链-33901 (STARLINK-33901)

导读

STARLINK-33901是美国SpaceX星链计划中的一颗卫星,于2025年5月10日成功发射升空。作为星链星座的组成部分,它主要服务于全球高速互联网覆盖项目,可为偏远地区、海上及航空场景提供低延迟网络接入,进一步拓展了星链系统的全球服务能力,推动低轨卫星互联网组网进程。

基本信息
目录编号:
63878
目录名称:
STARLINK-33901
国际标识:
2025-094Q
轨道中心:
EARTH
卫星名称:
星链-33901
卫星全名:
星链-33901 (STARLINK-33901)
卫星状态:
在轨 (已飞行482 天)
发射日期:
2025-05-10 UTC
国别 :
美国 (US)
星等 :
--
轨道信息
数据来源 国际轨道数据
星历时间: 2026-09-04T04:00:02+0800
10小时前
查看轨道信息
半长轴: 6874.379km
偏心率: 0.00047
轨道倾角: 70.002°
近地点辐角 278.524°
升交点赤经 145.095°
平近点角 50.467°
近地点: 493.011km
远地点: 499.473km
周期: 94.539分钟
每日圈数: 15.231848
详细信息
固有亮度:
5
最大亮度:
2.5
卫星平台:
Starlink V1.0
覆盖范围:
全球
运营商:
太空探索技术公司
运营商所在国:
美国
制造商(研发单位):
太空探索技术公司
制造商所在国:
美国
使用方式:
暂无
卫星简介
Starlink 计划是 SpaceX 推出的全球卫星互联网项目,通过发射低轨道卫星,为全球尤其是偏远地区提供高速、低延迟的互联网服务。自 2019 年起,Starlink 已部署数千颗卫星,旨在缩小全球数字鸿沟,推动互联网普及。该项目还为军事、航空等行业提供通信支持,带来广泛经济效益。
2D轨道图
3D轨道图
轨道高度分析图
轨道倾角分析图
轨道综合分析图
查看轨道综合分析图
交会数据列表
事件ID 空间交会对象 最接近时刻(TCA) 交会距离 交会风险概率(CRP) 交会风险指数(CRI) 操作
CDM_260904-003806-387806-396121
2026-09-04T
00:38:49+0000
1.199 km
极远距离
1.115533E-5 中风险 0.56
CDM_260904-032006-387806-749421
2026-09-04T
03:20:50+0000
1.277 km
极远距离
9.428008E-6 低风险 0.54
CDM_260904-031806-387806-646421
2026-09-04T
03:18:38+0000
1.623 km
极远距离
4.49587E-6 低风险 0.48
CDM_260903-162405-316606-387821
2026-09-03T
16:24:47+0000
1.582 km
极远距离
4.303266E-6 低风险 0.48
CDM_260904-223806-387806-420421
2026-09-04T
22:38:26+0000
1.876 km
极远距离
3.077535E-6 低风险 0.45
CDM_260904-061105-707606-387821
2026-09-04T
06:11:37+0000
1.584 km
极远距离
2.525975E-6 低风险 0.43
CDM_260904-060405-392406-387821
2026-09-04T
06:04:16+0000
1.837 km
极远距离
2.262685E-6 低风险 0.42
CDM_260902-121604-311106-387821
2026-09-02T
12:16:40+0000
2.625 km
极远距离
1.614111E-6 低风险 0.39
CDM_260901-203206-387806-675121
2026-09-01T
20:32:08+0000
2.940 km
极远距离
1.383697E-6 低风险 0.38
CDM_260905-020106-387806-607921
2026-09-05T
02:01:13+0000
1.764 km
极远距离
1.356476E-6 低风险 0.38